Location: Peebles
(55.6412°N, 3.1714°W)
Time: 23:36:49
(UTC+01:00)

CENTAUR R/B - Pass Details

Date: 25 January 2022
Orbit: 716 x 1471 km, 63.4° (Epoch: 08 May)

Event Time Altitude Azimuth Distance (km) Brightness Sun altitude
Rises 21:32:37 0° 300° (WNW) 3,908 6.5 -41.0°
Reaches altitude 10° 21:35:10 10° 304° (NW) 3,052 5.7 -41.3°
Enters shadow 21:39:57 43° 325° (NW) 1,698 3.9 -41.9°
